Wind_Speed
9 20 16 16 17 18 17 18 18 19 19 18 17 18 20 17 18 19 22 18 15 12 11 10 10 6 6 10 16 17 17 19
12 7 12 11 13 14 16 17 19 21 20 21 22 23 24 20 22 24 20 19 17 15 13 8 7 7 10 12 14 14 16 20
5 5 2 6 10 13 14 15 18 19 20 22 22 22 21 21 19 24 23 24 23 19 19 15 15 13 13 13 9 10 14 15
2 3 6 9 12 13 14 13 16 19 22 23 25 21 22 24 22 24 27 29 27 25 21 17 15 16 15 10 11 13 15 13
6 3 3 6 10 10 11 13 17 18 22 26 28 30 30 29 28 27 28 29 28 25 21 20 16 14 9 10 13 15 17 22
4 3 5 5 7 8 11 14 21 25 25 25 29 31 32 33 27 23 24 23 20 29 23 24 20 17 16 22 21 21 23 26
2 3 7 12 12 12 14 17 21 24 27 29 30 33 35 34 35 31 31 22 20 24 26 25 23 20 19 16 16 23 24 28
5 9 7 6 6 7 11 20 25 28 33 33 35 37 37 39 38 38 36 30 25 23 19 14 13 18 20 27 23 30 35 32
9 8 4 6 4 11 19 21 26 30 32 38 33 30 35 41 40 39 37 33 26 22 22 23 23 22 28 31 30 29 30 31
9 6 7 5 14 19 21 28 32 34 34 36 38 37 35 31 31 28 21 17 14 14 16 17 21 26 30 20 28 30 31 33
11 12 18 17 19 24 29 29 33 34 28 33 36 34 24 19 19 16 14 15 14 15 18 27 28 17 21 27 29 30 31 32
15 21 15 14 19 24 31 35 36 25 30 31 32 31 23 18 15 13 13 18 13 16 25 15 17 22 26 28 31 32 34 34
21 16 18 25 32 39 39 42 27 27 27 30 28 23 18 13 12 13 13 11 13 20 14 18 23 26 29 32 34 35 35 35
24 26 29 37 36 38 37 30 25 29 28 28 20 14 12 12 11 10 13 16 21 17 17 22 26 31 33 34 33 33 33 33
20 27 37 38 36 38 29 27 30 29 24 22 16 9 6 11 13 12 15 14 16 21 24 28 29 32 32 31 32 33 32 32
30 34 35 37 36 27 26 29 36 28 20 13 9 11 12 13 13 15 13 15 21 25 26 28 32 29 30 29 28 29 33 37
36 36 35 33 28 25 31 36 30 22 15 16 13 12 15 18 17 14 13 20 24 25 31 29 30 32 27 28 32 34 36 37
34 32 34 27 22 29 35 36 31 23 20 18 22 24 19 11 7 9 21 25 29 31 31 33 30 28 29 31 33 39 44 45
31 31 28 24 32 33 37 25 15 15 11 7 7 4 4 4 14 20 24 27 29 32 30 26 27 29 33 36 36 29 28 29
Wind_Direction
268 239 223 220 233 250 262 267 274 278 276 266 260 255 256 262 253 252 273 273 257 244 242 270 288 305 287 303 317 323 325 324
36 184 209 233 250 267 286 285 288 284 279 273 274 263 270 267 250 263 258 255 260 253 234 239 246 255 262 291 308 314 319 322
45 65 297 291 299 305 307 306 295 289 285 286 282 283 275 270 266 255 250 253 260 245 248 249 252 252 253 282 276 291 302 310
166 277 285 288 288 294 303 305 311 284 278 279 279 266 259 259 258 246 248 256 257 254 242 241 250 259 265 270 274 296 296 288
93 68 312 285 305 295 298 311 320 311 278 279 273 276 272 263 263 260 264 265 269 258 245 242 245 236 231 249 268 274 279 292
64 8 339 356 345 320 307 316 324 320 311 298 277 272 277 276 263 259 250 261 261 244 237 234 231 238 258 265 256 277 282 297
65 22 353 325 335 352 346 323 316 314 307 298 287 277 271 265 259 249 252 252 229 222 224 233 242 260 256 254 286 285 296 291
359 346 325 320 329 323 332 329 327 323 315 303 290 280 275 265 261 256 245 243 235 227 228 230 256 264 252 283 285 284 293 290
351 320 305 301 314 329 336 330 323 317 318 304 297 294 288 276 265 250 240 235 230 225 233 264 273 273 272 276 278 289 290 287
332 313 302 315 327 328 325 322 318 322 315 300 300 300 306 278 242 233 228 217 216 245 258 254 265 283 290 301 287 291 284 281
36 31 354 339 323 318 313 314 314 321 305 302 304 306 297 254 232 221 212 228 241 255 258 267 288 314 299 295 295 290 285 284
25 359 358 347 336 328 325 325 330 322 311 304 300 299 290 263 247 234 237 267 272 283 303 316 306 296 296 294 289 288 285 284
10 7 346 339 337 329 326 327 325 317 313 302 294 288 274 263 249 240 240 261 298 315 311 298 296 289 288 288 287 285 285 283
345 337 336 332 329 329 324 329 312 321 311 295 283 276 277 261 235 247 271 288 315 324 298 290 289 291 294 293 291 290 287 285
328 332 334 332 325 327 325 320 315 325 301 286 285 276 237 216 240 268 291 315 310 301 299 296 296 298 299 296 294 292 286 282
344 336 333 325 325 329 315 322 321 320 291 261 223 207 210 228 264 284 304 309 305 301 296 295 298 296 294 298 291 283 283 282
331 327 326 325 326 311 312 318 319 320 280 253 236 240 270 283 293 291 295 293 297 292 297 298 295 298 298 290 288 288 285 283
323 323 324 324 307 308 317 318 316 305 275 272 281 283 299 335 290 269 294 295 296 298 299 301 304 299 294 293 292 291 289 287
316 323 321 311 313 320 322 323 321 299 309 355 360 2 301 242 278 288 292 296 299 303 306 307 300 297 298 303 307 303 298 294
Height
1515 1516 1518 1519 1520 1521 1521 1522 1523 1523 1522 1521 1521 1519 1519 1518 1515 1513 1513 1513 1514 1513 1513 1513 1512 1512 1510 1509 1508 1507 1505 1504
1514 1516 1518 1519 1520 1521 1522 1522 1521 1520 1519 1518 1517 1516 1516 1515 1513 1512 1510 1510 1511 1511 1510 1510 1509 1508 1507 1506 1505 1504 1502 1500
1517 1518 1519 1520 1520 1520 1520 1520 1518 1517 1516 1514 1513 1512 1510 1509 1509 1508 1507 1506 1506 1505 1507 1506 1505 1504 1504 1504 1503 1502 1500 1498
1514 1517 1518 1518 1518 1518 1517 1516 1514 1513 1511 1510 1508 1506 1506 1505 1504 1503 1502 1501 1501 1501 1502 1502 1502 1501 1500 1500 1500 1500 1499 1497
1514 1513 1514 1514 1513 1513 1513 1512 1511 1509 1507 1505 1504 1503 1500 1499 1499 1499 1498 1496 1497 1496 1497 1498 1497 1496 1495 1495 1494 1494 1494 1493
1512 1513 1512 1512 1511 1510 1509 1508 1507 1507 1505 1502 1499 1497 1496 1494 1493 1494 1493 1492 1491 1492 1492 1491 1490 1490 1490 1491 1490 1490 1490 1488
1511 1511 1510 1510 1509 1508 1507 1506 1505 1503 1500 1497 1493 1489 1487 1486 1486 1485 1486 1484 1484 1484 1484 1485 1485 1484 1484 1485 1484 1486 1485 1485
1508 1508 1509 1509 1507 1506 1505 1503 1501 1499 1495 1492 1487 1483 1479 1477 1476 1474 1475 1476 1476 1478 1479 1479 1479 1477 1475 1476 1478 1479 1479 1477
1508 1508 1506 1504 1502 1501 1500 1499 1497 1494 1490 1485 1481 1477 1474 1470 1467 1466 1465 1465 1466 1468 1469 1470 1471 1470 1469 1471 1474 1474 1472 1469
1508 1506 1503 1501 1499 1497 1496 1494 1491 1486 1482 1478 1473 1469 1466 1462 1461 1460 1460 1461 1461 1462 1463 1465 1464 1464 1467 1469 1469 1466 1464 1461
1505 1505 1503 1499 1496 1495 1492 1489 1484 1478 1473 1470 1466 1462 1461 1460 1459 1458 1458 1458 1458 1458 1458 1461 1463 1463 1464 1464 1461 1458 1455 1453
1503 1502 1500 1498 1495 1491 1488 1482 1476 1472 1468 1464 1460 1458 1457 1456 1456 1455 1455 1457 1456 1457 1458 1458 1459 1459 1458 1455 1453 1450 1447 1445
1501 1499 1497 1493 1489 1485 1480 1476 1471 1466 1462 1457 1454 1453 1451 1451 1452 1452 1451 1453 1454 1454 1454 1455 1454 1452 1450 1448 1445 1442 1439 1437
1499 1496 1492 1489 1485 1481 1476 1471 1466 1462 1457 1452 1450 1448 1448 1448 1448 1450 1450 1449 1451 1451 1450 1449 1447 1445 1443 1440 1437 1433 1431 1428
1494 1492 1490 1483 1479 1475 1470 1466 1463 1459 1453 1448 1446 1445 1444 1445 1446 1446 1447 1448 1447 1446 1445 1443 1440 1437 1434 1431 1428 1425 1422 1419
1491 1487 1482 1478 1475 1471 1466 1462 1457 1454 1451 1447 1444 1443 1442 1442 1443 1443 1444 1444 1443 1441 1438 1436 1433 1430 1427 1424 1420 1416 1412 1409
1488 1483 1478 1474 1469 1465 1462 1457 1454 1452 1448 1444 1441 1441 1440 1438 1439 1441 1441 1440 1438 1435 1432 1428 1425 1423 1420 1415 1411 1407 1403 1399
1482 1478 1473 1468 1465 1461 1456 1450 1446 1442 1440 1439 1438 1436 1436 1435 1435 1438 1437 1435 1432 1428 1425 1421 1418 1415 1411 1408 1404 1398 1392 1388
1477 1473 1469 1465 1461 1456 1451 1445 1442 1439 1437 1436 1435 1434 1435 1436 1436 1435 1432 1429 1426 1422 1417 1414 1411 1407 1404 1398 1393 1387 1382 1378